User: anonymous   Login
Location: Unspecified
(0.0000°N, 0.0000°E)
Time: 15:28:20
(UTC+00:00)
Language:

IRVINE01 - Orbit

View from above orbital plane
View from above orbital plane
View from above satellite
View from above satellite

Ground track
Ground track

The orbit data is extracted from the following two-line orbital elements,

1 43693U 18088D   22279.86840291  .00122676  00000-0  24210-2 0  9995
2 43693  85.0253 234.8687 0014059  69.6117 290.6647 15.46618063217382
Epoch (UTC): 06 October 2022 20:50:30
Eccentricity: 0.0014059
inclination: 85.0253°
perigee height: 417 km
apogee height: 436 km
right ascension of ascending node: 234.8687°
argument of perigee: 69.6117°
revolutions per day: 15.46618063
mean anomaly at epoch: 290.6647°
orbit number at epoch: 21738

The dashed part of the orbit path shows where the satellite is in the earth's shadow,  

DLR